GW0415 Weather Reports


time (UTC)temp
C
wind
direction
speed
KPH
gust
KPH
rain 1hr
cm
rain 24hr
cm
rain mn
cm
humidity
%
barometer
mb
20260503004249 17 0 0.0 6.4 0.00 0.00 0.00 38 1008.9
20260503003746 17 106 0.0 3.2 0.00 0.00 0.00 39 1009.2
20260503003243 17 354 0.0 3.2 0.00 0.00 0.00 40 1009.1
20260503002740 17 143 3.2 3.2 0.00 0.00 0.00 38 1009.1
20260503002237 17 103 0.0 3.2 0.00 0.00 0.00 39 1009.3
20260503001733 17 103 0.0 0.0 0.00 0.00 0.00 39 1009.1
20260503001229 17 8 0.0 3.2 0.00 0.00 0.00 39 1009.4
20260503000728 18 155 6.4 6.4 0.00 0.00 0.00 38 1009.1
20260503000226 18 135 0.0 4.8 0.00 0.00 0.00 37 1009.3
20260502235721 18 157 4.8 8.0 0.00 0.00 0.00 37 1009.4
20260502235220 18 158 0.0 3.2 0.00 0.00 0.00 37 1009.5
20260502234715 18 328 4.8 4.8 0.00 0.00 0.00 36 1009.3
20260502234213 18 141 4.8 4.8 0.00 0.00 0.00 35 1009.5
20260502233708 18 4 3.2 11.3 0.00 0.00 0.00 35 1009.3
20260502233206 18 318 0.0 9.7 0.00 0.00 0.00 35 1009.4
20260502232701 18 37 3.2 3.2 0.00 0.00 0.00 35 1009.4
20260502232159 18 0 3.2 4.8 0.00 0.00 0.00 34 1009.4
20260502231655 19 54 1.6 4.8 0.00 0.00 0.00 34 1009.4
20260502231153 19 32 0.0 4.8 0.00 0.00 0.00 34 1009.4
20260502230652 19 67 0.0 3.2 0.00 0.00 0.00 34 1009.4
20260502230150 19 15 3.2 3.2 0.00 0.00 0.00 33 1009.5
20260502225645 19 14 0.0 4.8 0.00 0.00 0.00 33 1009.5
20260502225143 19 120 1.6 6.4 0.00 0.00 0.00 33 1009.5
20260502224638 19 124 0.0 6.4 0.00 0.00 0.00 32 1009.7
20260502224135 19 20 0.0 3.2 0.00 0.00 0.00 33 1009.6
20260502223633 18 75 0.0 4.8 0.00 0.00 0.00 34 1009.5
20260502223131 19 0 0.0 4.8 0.00 0.00 0.00 33 1009.8
20260502222628 18 78 0.0 3.2 0.00 0.00 0.00 34 1010.0
20260502222125 18 8 0.0 1.6 0.00 0.00 0.00 34 1009.9
20260502221620 19 14 3.2 3.2 0.00 0.00 0.00 34 1009.9
20260502221118 18 82 1.6 4.8 0.00 0.00 0.00 33 1010.1
20260502220614 19 328 3.2 11.3 0.00 0.00 0.00 32 1010.0
20260502220110 19 132 0.0 4.8 0.00 0.00 0.00 32 1010.2
20260502215608 19 127 0.0 4.8 0.00 0.00 0.00 33 1010.1
20260502215104 20 98 0.0 4.8 0.00 0.00 0.00 33 1010.2
20260502214601 20 90 0.0 6.4 0.00 0.00 0.00 32 1010.4
20260502214059 20 36 3.2 8.0 0.00 0.00 0.00 33 1010.4
20260502213555 20 6 6.4 6.4 0.00 0.00 0.00 32 1010.6
20260502213053 20 353 0.0 8.0 0.00 0.00 0.00 32 1010.4
20260502212552 19 173 1.6 12.9 0.00 0.00 0.00 32 1010.6
20260502212049 20 262 1.6 8.0 0.00 0.00 0.00 32 1010.6
20260502211545 20 31 0.0 6.4 0.00 0.00 0.00 32 1010.7
20260502211042 20 124 4.8 8.0 0.00 0.00 0.00 32 1010.8
20260502210539 20 81 4.8 9.7 0.00 0.00 0.00 32 1010.8
20260502210036 20 295 0.0 8.0 0.00 0.00 0.00 33 1010.9
20260502205533 20 15 0.0 4.8 0.00 0.00 0.00 31 1011.0
20260502205030 20 21 4.8 6.4 0.00 0.00 0.00 31 1011.3
20260502204527 20 8 0.0 8.0 0.00 0.00 0.00 32 1011.2
20260502204025 19 328 0.0 6.4 0.00 0.00 0.00 31 1011.5
20260502203521 19 125 0.0 9.7 0.00 0.00 0.00 32 1011.6
20260502203018 19 29 3.2 4.8 0.00 0.00 0.00 33 1011.6
20260502202514 19 346 4.8 8.0 0.00 0.00 0.00 33 1011.8
20260502202013 19 135 4.8 6.4 0.00 0.00 0.00 32 1011.8
20260502201509 19 81 3.2 8.0 0.00 0.00 0.00 33 1012.0
20260502201005 19 96 3.2 9.7 0.00 0.00 0.00 32 1012.3
20260502200501 20 8 0.0 8.0 0.00 0.00 0.00 32 1012.3
20260502195959 18 60 0.0 6.4 0.00 0.00 0.00 31 1012.4
20260502195456 19 19 4.8 6.4 0.00 0.00 0.00 32 1012.5
20260502194952 20 35 8.0 12.9 0.00 0.00 0.00 31 1012.4
20260502194449 19 315 0.0 6.4 0.00 0.00 0.00 31 1012.7
20260502193944 18 180 0.0 8.0 0.00 0.00 0.00 32 1012.6
20260502193442 18 270 4.8 12.9 0.00 0.00 0.00 33 1013.0
20260502192938 18 26 4.8 4.8 0.00 0.00 0.00 32 1013.0
20260502192435 18 154 0.0 9.7 0.00 0.00 0.00 32 1013.0
20260502191932 19 45 3.2 3.2 0.00 0.00 0.00 32 1013.1
20260502191429 18 109 0.0 8.0 0.00 0.00 0.00 32 1013.3
20260502190926 19 132 3.2 9.7 0.00 0.00 0.00 30 1013.3
20260502190423 19 300 4.8 8.0 0.00 0.00 0.00 31 1013.5
20260502185919 18 63 1.6 8.0 0.00 0.00 0.00 33 1013.6
20260502185410 18 16 6.4 8.0 0.00 0.00 0.00 32 1013.7
20260502184907 18 139 3.2 6.4 0.00 0.00 0.00 33 1013.6
20260502184403 17 83 0.0 11.3 0.00 0.00 0.00 32 1013.9
20260502183859 17 60 0.0 6.4 0.00 0.00 0.00 33 1014.1
20260502183355 17 337 3.2 8.0 0.00 0.00 0.00 32 1014.1
20260502182851 18 270 3.2 8.0 0.00 0.00 0.00 33 1014.2
20260502182346 18 125 4.8 11.3 0.00 0.00 0.00 33 1014.3
20260502181843 17 266 0.0 8.0 0.00 0.00 0.00 31 1014.2
20260502181342 17 338 3.2 11.3 0.00 0.00 0.00 31 1014.5
20260502180839 17 161 6.4 14.5 0.00 0.00 0.00 31 1014.4
20260502180336 17 261 3.2 12.9 0.00 0.00 0.00 33 1014.4
20260502170255 17 59 3.2 4.8 0.00 0.00 0.00 33 1015.6
20260502164243 16 152 3.2 14.5 0.00 0.00 0.00 32 1016.0
20260502163738 17 32 3.2 6.4 0.00 0.00 0.00 31 1015.9
20260502163235 17 7 0.0 9.7 0.00 0.00 0.00 32 1015.8
20260502162732 17 21 3.2 4.8 0.00 0.00 0.00 33 1016.0
20260502162229 16 14 1.6 6.4 0.00 0.00 0.00 34 1016.3
20260502161726 16 285 3.2 6.4 0.00 0.00 0.00 33 1016.4
20260502161222 16 40 3.2 9.7 0.00 0.00 0.00 33 1016.3
20260502160721 16 180 1.6 4.8 0.00 0.00 0.00 33 1016.4
20260502160219 16 90 0.0 4.8 0.00 0.00 0.00 33 1016.4
20260502152143 16 71 0.0 8.0 0.00 0.00 0.00 34 1016.6
20260502151641 16 45 0.0 9.7 0.00 0.00 0.00 35 1016.7
20260502151138 16 124 6.4 9.7 0.00 0.00 0.00 34 1016.8
20260502150635 16 15 0.0 6.4 0.00 0.00 0.00 34 1016.6
20260502150131 15 135 0.0 6.4 0.00 0.00 0.00 36 1016.8
20260502130520 13 143 3.2 3.2 0.00 0.00 0.00 44 1017.3
20260502123503 11 18 0.0 3.2 0.00 0.00 0.00 49 1017.2
20260502123000 10 60 0.0 1.6 0.00 0.00 0.00 54 1017.3
20260502122456 8 145 1.6 4.8 0.00 0.00 0.00 57 1017.4
20260502121954 7 132 0.0 3.2 0.00 0.00 0.00 60 1017.1
20260502121451 6 120 0.0 3.2 0.00 0.00 0.00 66 1017.3
20260502120948 4 98 1.6 3.2 0.00 0.00 0.00 72 1017.2
20260502120444 3 159 3.2 3.2 0.00 0.00 0.00 74 1017.3
20260502115439 2 90 1.6 1.6 0.00 0.00 0.00 80 1017.3
20260502114935 2 111 0.0 1.6 0.00 0.00 0.00 80 1017.3
20260502114432 1 105 1.6 3.2 0.00 0.00 0.00 80 1017.5
20260502113929 1 66 0.0 3.2 0.00 0.00 0.00 80 1017.2
20260502113427 1 114 0.0 3.2 0.00 0.00 0.00 80 1017.3
20260502112925 1 114 1.6 1.6 0.00 0.00 0.00 79 1017.3
20260502112422 1 106 0.0 1.6 0.00 0.00 0.00 79 1017.0
20260502111920 1 90 0.0 1.6 0.00 0.00 0.00 79 1017.2
20260502111417 1 90 0.0 1.6 0.00 0.00 0.00 79 1016.9
20260502110914 1 98 1.6 1.6 0.00 0.00 0.00 78 1016.7
20260502110412 1 82 0.0 1.6 0.00 0.00 0.00 78 1017.1
20260502105909 1 90 0.0 1.6 0.00 0.00 0.00 77 1017.0
20260502105406 1 90 0.0 3.2 0.00 0.00 0.00 77 1016.8
20260502104904 1 121 3.2 3.2 0.00 0.00 0.00 78 1017.1
20260502104401 1 98 0.0 3.2 0.00 0.00 0.00 77 1017.0
20260502103858 1 106 0.0 3.2 0.00 0.00 0.00 77 1017.0
20260502103356 1 83 0.0 1.6 0.00 0.00 0.00 76 1017.0
20260502102852 1 83 1.6 1.6 0.00 0.00 0.00 76 1016.9
20260502102349 1 90 0.0 1.6 0.00 0.00 0.00 75 1016.8
20260502101847 1 106 0.0 1.6 0.00 0.00 0.00 75 1017.0
20260502101345 1 90 0.0 1.6 0.00 0.00 0.00 75 1017.2
20260502100843 1 83 1.6 1.6 0.00 0.00 0.00 74 1016.8
20260502100342 2 66 0.0 1.6 0.00 0.00 0.00 74 1016.9
20260502091315 2 66 0.0 1.6 0.00 0.00 0.00 69 1016.8
20260502090813 2 90 0.0 1.6 0.00 0.00 0.00 68 1016.6
20260502090309 3 97 0.0 1.6 0.00 0.00 0.00 68 1016.6
20260502071205 3 117 0.0 3.2 0.00 0.00 0.00 67 1017.1
20260502070703 3 105 1.6 3.2 0.00 0.00 0.00 67 1017.0
20260502070200 3 90 0.0 1.6 0.00 0.00 0.00 66 1017.0
20260502065659 3 109 0.0 3.2 0.00 0.00 0.00 65 1017.1
20260502065156 4 114 0.0 3.2 0.00 0.00 0.00 64 1017.3
20260502064655 4 120 1.6 3.2 0.00 0.00 0.00 64 1017.0
20260502064151 3 114 0.0 1.6 0.00 0.00 0.00 65 1017.3
20260502063649 3 82 0.0 3.2 0.00 0.00 0.00 67 1017.5
20260502063147 3 74 0.0 1.6 0.00 0.00 0.00 66 1017.2
20260502062643 3 90 0.0 1.6 0.00 0.00 0.00 65 1017.1
20260502062141 3 120 1.6 1.6 0.00 0.00 0.00 65 1017.2
20260502061639 3 97 0.0 1.6 0.00 0.00 0.00 65 1017.3
20260502061136 3 98 0.0 1.6 0.00 0.00 0.00 65 1017.2
20260502060637 3 106 0.0 1.6 0.00 0.00 0.00 65 1017.1
20260502060133 3 83 0.0 3.2 0.00 0.00 0.00 65 1017.3
20260502055631 3 97 0.0 1.6 0.00 0.00 0.00 65 1017.4
20260502055129 3 75 1.6 1.6 0.00 0.00 0.00 65 1017.3
20260502054628 3 75 0.0 1.6 0.00 0.00 0.00 65 1017.3
20260502054125 3 75 0.0 3.2 0.00 0.00 0.00 65 1017.4
20260502053622 3 120 0.0 1.6 0.00 0.00 0.00 65 1017.2
20260502053119 3 90 0.0 1.6 0.00 0.00 0.00 65 1017.4
20260502052617 3 90 0.0 1.6 0.00 0.00 0.00 64 1017.4
20260502052115 3 103 1.6 1.6 0.00 0.00 0.00 64 1017.3
20260502051613 3 98 1.6 1.6 0.00 0.00 0.00 64 1017.3
20260502051111 3 66 1.6 1.6 0.00 0.00 0.00 64 1017.1
20260502050607 3 106 0.0 1.6 0.00 0.00 0.00 63 1017.3
20260502050104 3 90 0.0 1.6 0.00 0.00 0.00 63 1017.3
20260502045600 4 82 0.0 3.2 0.00 0.00 0.00 63 1017.0
20260502045057 4 98 0.0 1.6 0.00 0.00 0.00 63 1017.3
20260502044554 4 90 1.6 1.6 0.00 0.00 0.00 62 1017.4
20260502044051 4 74 0.0 1.6 0.00 0.00 0.00 62 1017.3
20260502043548 4 98 0.0 1.6 0.00 0.00 0.00 61 1017.4
20260502043044 5 98 0.0 1.6 0.00 0.00 0.00 60 1017.2
20260502042539 5 90 1.6 1.6 0.00 0.00 0.00 59 1017.2
20260502042037 5 90 0.0 1.6 0.00 0.00 0.00 59 1017.2
20260502041535 5 82 0.0 1.6 0.00 0.00 0.00 59 1017.4
20260502041032 5 90 0.0 1.6 0.00 0.00 0.00 58 1017.0
20260502040528 5 83 0.0 1.6 0.00 0.00 0.00 58 1017.1
20260502040025 5 90 0.0 1.6 0.00 0.00 0.00 58 1017.3
20260502035521 5 114 0.0 1.6 0.00 0.00 0.00 56 1017.4
20260502035019 5 90 1.6 1.6 0.00 0.00 0.00 55 1017.4
20260502034516 5 90 1.6 1.6 0.00 0.00 0.00 55 1017.1
20260502034015 5 90 0.0 0.0 0.00 0.00 0.00 54 1017.2
20260502033513 5 114 0.0 1.6 0.00 0.00 0.00 54 1017.3
20260502033010 6 98 0.0 1.6 0.00 0.00 0.00 53 1017.4
20260502032505 6 74 0.0 0.0 0.00 0.00 0.00 53 1017.3
20260502032003 6 90 1.6 1.6 0.00 0.00 0.00 52 1017.5
20260502031500 6 106 0.0 1.6 0.00 0.00 0.00 51 1017.3
20260502030958 6 90 0.0 0.0 0.00 0.00 0.00 51 1017.2
20260502030456 6 114 0.0 0.0 0.00 0.00 0.00 51 1017.2
20260502025954 6 114 0.0 0.0 0.00 0.00 0.00 51 1017.3
20260502025451 6 114 0.0 0.0 0.00 0.00 0.00 51 1017.3
20260502024949 6 114 0.0 1.6 0.00 0.00 0.00 50 1017.3
20260502024446 6 74 0.0 0.0 0.00 0.00 0.00 49 1017.3
20260502023945 7 74 0.0 0.0 0.00 0.00 0.00 48 1017.4
20260502023442 7 82 0.0 1.6 0.00 0.00 0.00 47 1017.3
20260502022939 7 105 0.0 1.6 0.00 0.00 0.00 46 1017.3
20260502022435 7 106 0.0 1.6 0.00 0.00 0.00 45 1017.3
20260502021932 7 90 0.0 1.6 0.00 0.00 0.00 45 1017.2
20260502021430 7 98 0.0 0.0 0.00 0.00 0.00 44 1017.2
20260502020927 8 106 0.0 0.0 0.00 0.00 0.00 43 1017.0
20260502020425 8 106 0.0 1.6 0.00 0.00 0.00 42 1017.0
20260502015921 8 114 0.0 1.6 0.00 0.00 0.00 41 1017.1
20260502015419 8 90 0.0 0.0 0.00 0.00 0.00 41 1016.9
20260502014915 8 97 0.0 1.6 0.00 0.00 0.00 40 1016.8
20260502014413 9 81 0.0 0.0 0.00 0.00 0.00 39 1016.7
20260502013909 9 81 0.0 0.0 0.00 0.00 0.00 38 1016.9
20260502013404 10 81 0.0 0.0 0.00 0.00 0.00 38 1016.8
20260502012901 10 60 0.0 4.8 0.00 0.00 0.00 37 1016.7
20260502012359 10 106 1.6 1.6 0.00 0.00 0.00 37 1016.7
20260502011856 10 15 0.0 4.8 0.00 0.00 0.00 36 1016.7
20260502011352 10 144 4.8 4.8 0.00 0.00 0.00 36 1016.7
20260502010849 10 66 0.0 4.8 0.00 0.00 0.00 36 1016.6
20260502010346 11 172 0.0 3.2 0.00 0.00 0.00 36 1016.8
20260502005843 11 126 1.6 4.8 0.00 0.00 0.00 36 1016.5
20260502005341 11 15 9.7 12.9 0.00 0.00 0.00 34 1016.6
20260502004838 11 68 0.0 4.8 0.00 0.00 0.00 35 1016.5